[ ตารางข้อมูล ] [ Min-Max ] [ วันนี้4 ] [ วันนี้2 ] [ เทียบ3วัน A ] [ เทียบ4วัน B ]   

วันนี้2   [ ◀ ช่วงเก่ากว่า ] [ ช่วงที่ 181 ] [ ช่วงใหม่กว่า ▶ ] [ ล่าสุด ]    [ 3 ชั่วโมง ] [ 6 ชั่วโมง ] [ 12 ชั่วโมง ] [ 24 ชั่วโมง ]   วันนี้2

อุณภูมิตู้ Knockdown4529  ราย 6 ชั่วโมง  ที่วัดได้ ในช่วงวันเวลา 19/03/2026 (05:24) ถึง 19/03/2026 (11:24) 
ความชื้นในตู้ Knockdown4529  ราย 6 ชั่วโมง  ที่วัดได้ ในช่วงวันเวลา 19/03/2026 (05:24) ถึง 19/03/2026 (11:24) 

 
DS18B20SHTC3 
IDDate d/m/Y & Timedata1
สูง
data2
ต่ำ
data3
นอก
temp
pcb
hum
pcb
Time
 3906  19/03/2026 11:20:31  30.8  29.6  31.0  30.2  69.3  11:20 
 3905  19/03/2026 11:15:49  30.6  29.6  31.2  30.1  69.3  11:15 
 3904  19/03/2026 11:11:07  30.6  29.6  31.6  30.1  69.6  11:11 
 3903  19/03/2026 11:06:25  30.5  29.5  31.0  30.1  69.5  11:06 
 3902  19/03/2026 11:01:45  30.4  29.4  30.9  29.9  69.5  11:01 
 3901  19/03/2026 10:57:01  30.4  29.4  31.0  29.7  69.6  10:57 
 3900  19/03/2026 10:52:17  30.3  29.3  31.0  29.8  69.8  10:52 
 3899  19/03/2026 10:47:35  30.2  29.3  31.0  29.9  69.9  10:47 
 3898  19/03/2026 10:42:53  30.2  29.2  30.8  29.6  69.9  10:42 
 3897  19/03/2026 10:38:11  30.1  29.2  30.7  29.7  70.1  10:38 
 3896  19/03/2026 10:33:29  30.1  29.1  30.6  29.6  70.0  10:33 
 3895  19/03/2026 10:28:48  30.0  29.1  30.7  29.6  70.2  10:28 
 3894  19/03/2026 10:24:06  29.9  29.1  30.6  29.5  70.1  10:24 
 3893  19/03/2026 10:19:24  29.9  29.0  30.5  29.4  70.3  10:19 
 3892  19/03/2026 10:14:42  29.9  28.9  30.4  29.2  70.3  10:14 
 3891  19/03/2026 10:10:00  29.8  28.9  30.7  29.2  70.5  10:10 
 3890  19/03/2026 10:05:18  29.8  28.8  30.6  29.3  70.7  10:05 
 3889  19/03/2026 10:00:36  29.7  28.8  30.9  29.1  70.7  10:00 
 3888  19/03/2026 09:55:54  29.6  28.7  30.2  28.9  70.8  09:55 
 3887  19/03/2026 09:51:12  29.6  28.6  30.5  29.0  70.8  09:51 
 3886  19/03/2026 09:46:30  29.5  28.6  30.4  29.0  71.0  09:46 
 3885  19/03/2026 09:41:47  29.4  28.5  30.5  28.9  71.1  09:41 
 3884  19/03/2026 09:37:06  29.4  28.4  30.4  28.9  71.2  09:37 
 3883  19/03/2026 09:32:24  29.2  28.4  30.2  28.6  71.3  09:32 

Data every 5 minute.


ใช้เวลาประมวลผล 0.00304 วินาที